Beaufort MCAS, SC

11:35 PM EDT on March 24, 2017 (GMT -0400)
Beaufort Marine Corps Air Station

Weather History for KNBC - February, 2012

Change the Weather History Date:

Sunday, February 26, 2012

  Actual Average Record
Temperature  
Mean Temperature 47 °F -  
Max Temperature 57 °F 63 °F 68 °F (2017)
Min Temperature 37 °F 39 °F 39 °F (2015)
Degree Days  
Heating Degree Days 18    
Moisture  
Dew Point 34 °F    
Average Humidity 59    
Maximum Humidity 77    
Minimum Humidity 41    
Precipitation  
Precipitation 0.00 in - - ()
Sea Level Pressure  
Sea Level Pressure 30.42 in    
Wind  
Wind Speed 6 mph (NNE)    
Max Wind Speed 12 mph    
Max Gust Speed 17 mph    
Visibility 10 miles    
Events      
Averages and records for this station are not official NWS values.
T = Trace of Precipitation, MM = Missing Value Source: NWS Daily Summary

Daily Weather History Graph

Daily Weather History Graph

Search for Another Location

Airport or City:

Trip Planner

Search our weather history database for the weather conditions in past years. The results will help you decide how hot, cold, wet, or windy it might be!

Date:

Astronomy

Feb. 26, 2012 Rise Set
Actual Time 6:54 AM EST 6:17 PM EST
Civil Twilight 6:29 AM EST 6:42 PM EST
Nautical Twilight 6:01 AM EST 7:10 PM EST
Astronomical Twilight 5:32 AM EST 7:39 PM EST
Moon 9:08 AM EST (2/26) 10:52 PM EST (2/26)
Length of Visible Light 12h 12m
Length of Day
11h 23m
Waxing Crescent, 20% of the Moon is Illuminated
Feb 26
Waxing Crescent
Feb 29
First Quarter
Mar 8
Full
Mar 14
Last Quarter
Mar 22
New

Hourly Weather History & Observations

Time (EST) Temp. Windchill Dew Point Humidity Pressure Visibility Wind Dir Wind Speed Gust Speed Precip Events Conditions
12:56 AM 37.9 °F 35.5 °F 30.0 °F 73% 30.34 in 10.0 mi SSW 3.5 mph - N/A   Clear
1:56 AM 37.9 °F 35.5 °F 30.0 °F 73% 30.35 in 10.0 mi South 3.5 mph - N/A   Clear
2:56 AM 39.9 °F - 33.1 °F 77% 30.35 in 10.0 mi Calm Calm - N/A   Clear
3:56 AM 37.9 °F - 30.9 °F 76% 30.36 in 10.0 mi Calm Calm - N/A   Clear
4:56 AM 37.9 °F 32.7 °F 30.9 °F 76% 30.37 in 5.0 mi North 6.9 mph - N/A   Haze
5:56 AM 41.0 °F 35.8 °F 30.0 °F 65% 30.39 in 9.0 mi North 8.1 mph - N/A   Clear
6:56 AM 41.0 °F 37.1 °F 30.0 °F 65% 30.43 in 10.0 mi North 5.8 mph - N/A   Clear
7:56 AM 42.1 °F 37.1 °F 27.0 °F 55% 30.45 in 10.0 mi North 8.1 mph - N/A   Clear
8:56 AM 44.1 °F 40.1 °F 26.1 °F 49% 30.48 in 10.0 mi NNE 6.9 mph - N/A   Clear
9:56 AM 46.0 °F 40.6 °F 24.1 °F 42% 30.46 in 10.0 mi North 11.5 mph 17.3 mph N/A   Clear
10:56 AM 48.9 °F - 26.1 °F 41% 30.49 in 10.0 mi North 10.4 mph - N/A   Clear
11:56 AM 53.1 °F - 30.9 °F 43% 30.48 in 10.0 mi North 10.4 mph - N/A   Clear
12:56 PM 54.0 °F - 35.1 °F 49% 30.46 in 10.0 mi Variable 6.9 mph - N/A   Clear
1:56 PM 55.9 °F - 37.0 °F 49% 30.43 in 10.0 mi NE 8.1 mph - N/A   Clear
2:56 PM 57.9 °F - 37.9 °F 47% 30.42 in 10.0 mi NNE 9.2 mph - N/A   Partly Cloudy
3:56 PM 57.9 °F - 39.9 °F 51% 30.41 in 10.0 mi NE 10.4 mph - N/A   Clear
4:56 PM 55.9 °F - 41.0 °F 57% 30.40 in 10.0 mi ENE 6.9 mph - N/A   Overcast
5:56 PM 55.0 °F - 39.9 °F 57% 30.41 in 10.0 mi NE 8.1 mph - N/A   Overcast
6:56 PM 54.0 °F - 39.0 °F 57% 30.42 in 10.0 mi NE 10.4 mph - N/A   Overcast
7:56 PM 54.0 °F - 39.0 °F 57% 30.42 in 10.0 mi North 5.8 mph - N/A   Overcast
8:56 PM 53.1 °F - 39.0 °F 59% 30.43 in 10.0 mi NNE 6.9 mph - N/A   Overcast
9:56 PM 53.1 °F - 41.0 °F 64% 30.43 in 10.0 mi NNE 9.2 mph - N/A   Overcast
10:56 PM 53.1 °F - 42.1 °F 66% 30.42 in 10.0 mi NNE 5.8 mph - N/A   Overcast
11:56 PM 53.1 °F - 42.1 °F 66% 30.41 in 10.0 mi Variable 4.6 mph - N/A   Overcast